Flag for Switzerland Weather past 2 weeks in Bellinzona, Ticino, Switzerland

Now
74 °F

Mild.


Feels Like: 75 °F
Forecast: 69 / 94 °F
Wind: No wind

Location: Locarno-Magadino

Current Time: Jul 1, 2015 at 9:07:47 AM

Latest Report: Jul 1, 2015 at 8:00 AM


Visibility: N/A

Pressure: 30.14 "Hg

Humidity: 75%

Dew point: 65 °F

Location of BellinzonaLocation

Historic Weather in Bellinzona — Graph

°F

Bellinzona temperature yesterday

Maximum temperature yesterday: 84 °F (at 4:00 PM)
Minimum temperature yesterday: 60 °F (at 6:00 AM)
Average temperature yesterday: 73 °F

Past Weeks' High & Low Weather Summary

 TemperatureHumidityPressure
High85 °F (Jun 28, 6:00 PM)99% (Jun 17, 3:00 AM)30.22 "Hg (Jun 17, 3:00 AM)
Low50 °F (Jun 21, 6:00 AM)19% (Jun 19, 6:00 PM)29.71 "Hg (Jun 23, 4:00 PM)
Average69 °F66%30.00 "Hg
* Reported Jun 16 7:00 AM — Jul 1 7:00 AM, Bellinzona, Weather by CustomWeather, © 2015

Note: Actual official high and low records may vary slightly from our data, if they occured in-between our weather recording intervals... More about our weather records

Advertising

Bellinzona weather history for previous 24 hours

 ConditionsComfort  
Time TempWeatherWind HumidityBarometerVisibility
7:00 AM
Wed, Jul 1
71 °FMild.1 mph91%30.15 "HgN/A
6:00 AM70 °FMild.1 mph90%30.15 "HgN/A
4:00 AM72 °FMild.No wind83%30.13 "HgN/A
3:00 AM71 °FMild.No wind89%30.13 "HgN/A
2:00 AM73 °FMild.No wind78%30.13 "HgN/A
1:00 AM73 °FMild.1 mph77%30.12 "HgN/A
12:00 AM74 °FMild.1 mph74%30.12 "HgN/A
11:00 PM
Tue, Jun 30
73 °FMild.1 mph84%30.11 "HgN/A
10:00 PM74 °FMild.1 mph77%30.10 "HgN/A
9:00 PM76 °FMild.2 mph76%30.07 "HgN/A
8:00 PM80 °FWarm.3 mph65%30.06 "HgN/A
6:00 PM84 °FWarm.5 mph49%30.05 "HgN/A
4:00 PM84 °FWarm.10 mph51%30.07 "HgN/A
3:00 PM84 °FWarm.8 mph55%30.08 "HgN/A
2:00 PM83 °FWarm.7 mph53%30.10 "HgN/A
1:00 PM81 °FWarm.10 mph60%30.11 "HgN/A
12:00 PM78 °FWarm.10 mph63%30.12 "HgN/A
11:00 AM77 °FMild.7 mph61%30.13 "HgN/A
10:00 AM75 °FMild.2 mph66%30.14 "HgN/A
9:00 AM71 °FMild.2 mph68%30.15 "HgN/A
Weather by CustomWeather, © 2015

See weather overviewHow to use our weather pages